Stations météo

réclame
Mon MeteoGroup
Malaga/Aeropuerto, Espagne (8482): Température de l'air & dewpoint: 12.01.2020 14:00:00 - 18.01.2020 14:00:00 (CET)Malaga/Aeropuerto, Espagne (8482): Vitesse du vent: 12.01.2020 14:00:00 - 18.01.2020 14:00:00 (CET)Malaga/Aeropuerto, Espagne (8482): Direction du vent: 12.01.2020 14:00:00 - 18.01.2020 14:00:00 (CET)Malaga/Aeropuerto, Espagne (8482): reduced air pressure: 12.01.2020 14:00:00 - 18.01.2020 14:00:00 (CET)Malaga/Aeropuerto, Espagne (8482): visibility: 12.01.2020 14:00:00 - 18.01.2020 14:00:00 (CET)
Date & Time tt [°C] td [°C] ff [km/h] ff [knt] dd ppp [hPa] vv [km]
18.01.2020 14:00:00 14,6 9,2 5 3 W 1030,2 20
18.01.2020 13:00:00 13,3 9,1 5 3 NW 1031,3 20
18.01.2020 12:00:00 12,6 8,2 13 7 WNW 1032,6 -
18.01.2020 11:00:00 10,9 8,0 15 8 WNW 1032,9 -
18.01.2020 10:00:00 10,8 6,0 9 5 WNW 1032,0 20
18.01.2020 09:00:00 9,7 5,6 13 7 W 1031,7 -
18.01.2020 08:00:00 9,2 5,5 15 8 WNW 1031,4 15
18.01.2020 07:00:00 9,3 5,6 11 6 WNW 1031,0 15
18.01.2020 06:00:00 8,6 5,8 15 8 W 1031,0 -
18.01.2020 05:00:00 9,6 6,0 13 7 W 1031,2 -
18.01.2020 04:00:00 10,2 6,2 13 7 NW 1031,5 15
18.01.2020 03:00:00 9,2 6,2 15 8 WNW 1031,2 -
18.01.2020 02:00:00 10,6 7,1 13 7 WNW 1031,7 -
18.01.2020 01:00:00 11,4 6,9 18 10 WNW 1031,9 15
18.01.2020 00:00:00 13,4 7,5 18 10 WNW 1032,1 -
17.01.2020 23:00:00 14,4 7,3 21 11 W 1031,8 -
17.01.2020 22:00:00 15,1 7,7 18 10 W 1031,7 15
17.01.2020 21:00:00 16,1 8,0 21 11 W 1031,6 -
17.01.2020 20:00:00 14,9 8,1 16 9 W 1031,6 -
17.01.2020 19:00:00 17,3 7,7 16 9 WNW 1031,1 30
17.01.2020 18:00:00 18,5 8,2 16 9 WNW 1030,2 -
17.01.2020 17:00:00 19,3 8,1 21 11 WNW 1030,0 -
17.01.2020 16:00:00 20,2 8,9 21 11 NW 1029,8 30
17.01.2020 15:00:00 20,3 9,6 18 10 WNW 1030,1 -
17.01.2020 14:00:00 20,3 9,0 21 11 WNW 1030,9 30
17.01.2020 13:00:00 19,9 8,5 21 11 WNW 1032,0 30
17.01.2020 12:00:00 18,1 5,1 13 7 W 1032,9 -
17.01.2020 11:00:00 13,1 4,7 9 5 WNW 1033,2 -
17.01.2020 10:00:00 11,1 3,8 15 8 WNW 1032,6 30
17.01.2020 09:00:00 6,6 3,7 18 10 WNW 1032,3 -
17.01.2020 08:00:00 6,4 3,6 16 9 WNW 1032,2 15
17.01.2020 07:00:00 6,4 3,8 18 10 WNW 1031,4 15
17.01.2020 06:00:00 6,6 4,3 18 10 W 1030,9 -
17.01.2020 05:00:00 6,4 4,3 15 8 W 1030,9 -
17.01.2020 04:00:00 7,4 4,8 13 7 WNW 1030,7 15
17.01.2020 03:00:00 6,8 4,7 15 8 WNW 1030,6 -
17.01.2020 02:00:00 7,5 4,9 13 7 W 1030,9 -
17.01.2020 01:00:00 8,3 6,1 13 7 W 1030,9 15
17.01.2020 00:00:00 9,6 6,9 16 9 W 1031,0 -
16.01.2020 23:00:00 9,3 7,2 11 6 W 1030,7 -
16.01.2020 22:00:00 10,3 7,8 8 4 WNW 1030,3 15
16.01.2020 21:00:00 11,7 9,3 9 5 W 1029,8 -
16.01.2020 20:00:00 12,3 10,1 0 0 N 1029,4 -
16.01.2020 19:00:00 14,0 11,2 11 6 ESE 1028,8 15
16.01.2020 18:00:00 15,3 11,1 9 5 SE 1028,3 -
16.01.2020 17:00:00 16,7 10,7 15 8 ESE 1028,0 -
16.01.2020 16:00:00 17,3 10,7 13 7 SE 1028,0 35
16.01.2020 15:00:00 17,1 10,2 16 9 SE 1028,2 -
16.01.2020 14:00:00 17,6 8,9 11 6 SE 1028,6 30
16.01.2020 13:00:00 17,3 6,4 9 5 ESE 1029,3 30
16.01.2020 12:00:00 14,6 8,4 8 4 WNW 1030,0 -
16.01.2020 11:00:00 11,2 7,5 13 7 WNW 1030,2 -
16.01.2020 10:00:00 8,2 5,7 16 9 WNW 1029,5 30
16.01.2020 09:00:00 7,4 5,8 18 10 WNW 1029,4 -
16.01.2020 08:00:00 7,8 6,1 21 11 WNW 1028,7 15
16.01.2020 07:00:00 7,2 5,0 18 10 WNW 1028,3 15
16.01.2020 06:00:00 7,6 5,5 21 11 WNW 1028,2 -
16.01.2020 05:00:00 7,8 5,5 21 11 W 1028,5 -
16.01.2020 04:00:00 8,3 5,7 15 8 WNW 1028,6 15
16.01.2020 03:00:00 8,9 6,5 16 9 W 1028,7 -
16.01.2020 02:00:00 8,7 6,7 15 8 WNW 1029,0 -
16.01.2020 01:00:00 9,1 7,3 8 4 NW 1029,2 15
16.01.2020 00:00:00 9,7 7,5 9 5 WNW 1029,3 -
15.01.2020 23:00:00 9,9 7,9 4 2 W 1028,9 -
15.01.2020 22:00:00 11,4 10,4 0 0 N 1028,7 15
15.01.2020 21:00:00 12,6 10,2 5 3 SSE 1028,6 -
15.01.2020 20:00:00 14,3 11,8 13 7 ENE 1028,3 -
15.01.2020 19:00:00 14,7 10,8 13 7 NE 1027,3 15
15.01.2020 18:00:00 16,7 9,7 8 4 NNE 1026,7 -
15.01.2020 17:00:00 18,4 9,3 11 6 S 1026,4 -
15.01.2020 16:00:00 19,2 9,9 11 6 SSE 1026,0 25
15.01.2020 15:00:00 20,4 8,8 8 4 SE 1026,0 -
15.01.2020 14:00:00 19,9 7,8 9 5 SE 1026,4 25
15.01.2020 13:00:00 17,8 7,7 5 3 ESE 1027,3 25
15.01.2020 12:00:00 15,0 6,6 8 4 WNW 1027,7 -
15.01.2020 11:00:00 10,7 5,2 11 6 WNW 1027,7 -
15.01.2020 10:00:00 7,9 3,9 16 9 WNW 1027,0 25
15.01.2020 09:00:00 6,2 3,4 18 10 WNW 1026,5 -
15.01.2020 08:00:00 5,8 3,2 18 10 WNW 1025,9 25
15.01.2020 07:00:00 7,4 3,7 16 9 WNW 1025,0 15
15.01.2020 06:00:00 7,7 4,1 16 9 WNW 1024,8 -
15.01.2020 05:00:00 7,9 4,3 15 8 WNW 1024,6 -
15.01.2020 04:00:00 7,9 4,3 18 10 WNW 1024,7 15
15.01.2020 03:00:00 8,0 4,2 18 10 WNW 1024,9 -
15.01.2020 02:00:00 9,2 4,3 21 11 WNW 1024,6 -
15.01.2020 01:00:00 10,0 4,3 18 10 WNW 1025,2 15
15.01.2020 00:00:00 12,7 4,5 22 12 W 1025,1 -
14.01.2020 23:00:00 12,3 3,9 24 13 W 1025,1 -
14.01.2020 22:00:00 11,9 4,8 21 11 W 1024,8 15
14.01.2020 21:00:00 9,9 4,6 15 8 W 1024,7 -
14.01.2020 20:00:00 11,4 5,2 8 4 WNW 1024,6 -
14.01.2020 19:00:00 13,6 4,7 4 2 W 1024,1 20
14.01.2020 18:00:00 15,9 3,8 9 5 NW 1023,6 -
14.01.2020 17:00:00 17,0 4,6 11 6 WNW 1023,2 -
14.01.2020 16:00:00 17,0 5,0 11 6 SSW 1023,1 30
14.01.2020 15:00:00 17,2 7,4 9 5 SSE 1023,2 -
14.01.2020 14:00:00 16,4 4,9 9 5 SW 1023,9 35
14.01.2020 13:00:00 15,7 4,7 13 7 W 1024,8 35
14.01.2020 12:00:00 14,1 5,8 15 8 W 1025,6 -
14.01.2020 11:00:00 10,0 5,4 13 7 WNW 1025,5 -
14.01.2020 10:00:00 7,3 3,8 16 9 WNW 1024,9 40
14.01.2020 09:00:00 5,6 2,9 18 10 WNW 1024,5 -
14.01.2020 08:00:00 5,2 2,8 18 10 WNW 1024,4 20
14.01.2020 07:00:00 5,9 3,2 18 10 WNW 1023,9 15
14.01.2020 06:00:00 7,0 3,7 11 6 WNW 1023,5 -
14.01.2020 05:00:00 6,8 3,7 13 7 NW 1023,5 -
14.01.2020 04:00:00 7,0 4,5 11 6 WNW 1023,9 15
14.01.2020 03:00:00 7,0 4,3 18 10 WNW 1024,1 -
14.01.2020 02:00:00 6,6 5,1 15 8 WNW 1024,4 -
14.01.2020 01:00:00 7,3 5,2 16 9 W 1024,8 15
14.01.2020 00:00:00 9,2 6,4 13 7 NW 1025,4 -
13.01.2020 23:00:00 8,4 6,2 13 7 WNW 1025,7 -
13.01.2020 22:00:00 9,5 6,5 8 4 NW 1025,6 15
13.01.2020 21:00:00 10,9 7,8 13 7 W 1025,9 -
13.01.2020 20:00:00 11,4 7,8 4 2 W 1026,0 -
13.01.2020 19:00:00 13,0 8,1 8 4 S 1025,7 15
13.01.2020 18:00:00 13,9 8,7 15 8 SSE 1025,3 -
13.01.2020 17:00:00 15,4 8,8 13 7 SSE 1025,4 -
13.01.2020 16:00:00 16,1 8,8 13 7 SE 1025,7 30
13.01.2020 15:00:00 16,5 8,6 13 7 SE 1026,0 -
13.01.2020 14:00:00 16,3 8,5 9 5 SE 1027,0 25
13.01.2020 13:00:00 15,8 8,6 8 4 E 1028,1 25
13.01.2020 12:00:00 13,6 8,1 5 3 NW 1028,9 -
13.01.2020 11:00:00 10,5 6,8 11 6 WNW 1029,3 -
13.01.2020 10:00:00 6,8 4,9 11 6 WNW 1029,1 20
13.01.2020 09:00:00 5,1 4,0 15 8 WNW 1028,8 -
13.01.2020 08:00:00 5,2 4,1 16 9 WNW 1028,8 20
13.01.2020 07:00:00 5,9 4,7 11 6 WNW 1028,6 15
13.01.2020 06:00:00 6,3 5,0 13 7 WNW 1028,5 -
13.01.2020 05:00:00 6,9 5,3 13 7 WNW 1029,0 -
13.01.2020 04:00:00 7,4 5,8 11 6 WNW 1029,3 15
13.01.2020 03:00:00 7,1 5,5 9 5 WNW 1029,6 -
13.01.2020 02:00:00 7,3 5,7 15 8 W 1029,8 -
13.01.2020 01:00:00 8,1 6,4 13 7 WNW 1030,1 15
13.01.2020 00:00:00 9,4 7,0 13 7 W 1030,6 -
12.01.2020 23:00:00 9,0 6,6 11 6 W 1030,3 -
12.01.2020 22:00:00 10,3 7,9 5 3 WNW 1030,4 20
12.01.2020 21:00:00 12,6 9,2 5 3 SE 1030,2 -
12.01.2020 20:00:00 13,1 9,2 9 5 SE 1030,0 -
12.01.2020 19:00:00 13,6 9,0 16 9 SE 1029,1 30
12.01.2020 18:00:00 14,5 8,9 13 7 SSE 1028,3 -
12.01.2020 17:00:00 16,2 8,6 16 9 SSE 1028,2 -
12.01.2020 16:00:00 16,5 9,5 16 9 S 1028,5 30
12.01.2020 15:00:00 16,6 9,9 16 9 SSE 1028,6 -
12.01.2020 14:00:00 16,5 9,8 15 8 SE 1029,5 30

tt = Température de l'air
td = dewpoint
ff = Vitesse du vent
dd = Direction du vent
ppp = reduced air pressure
vv = visibility

stations d'obs. à proximité